Regional Weather Roundup
Issued by NWS

Home | Current Version | Previous Version | Graphics & Text | Print | Product List | Glossary Off
Versions: 1 2 3 4 5 6 7 8 9 10 11 12 13 14 15 16 17 18 19 20 21 22 23 24 25 26 27 28 29 30 31 32 33 34 35 36 37 38 39 40 41 42 43 44 45 46 47 48 49 50

000
ASUS43 KDMX 232207
RWRIA

WEATHER ROUNDUP FOR IOWA
NATIONAL WEATHER SERVICE DES MOINES IA
400 PM CST SUN NOV 23 2014

NOTE: "FAIR" INDICATES FEW OR NO CLOUDS BELOW 12,000 FEET WITH NO
SIGNIFICANT WEATHER AND/OR OBSTRUCTIONS TO VISIBILITY.

* - THESE STATIONS ARE NOT NWS STATIONS...THUS NOT UNDER NWS
QUALITY CONTROL.  THEY ALSO DO NOT REPORT WEATHER SUCH
AS PRECIPITATION OR FOG.

IAZ001>003-012>014-020>022-031>034-043>046-232300-
   NORTHWEST IOWA

CITY           SKY/WX    TMP DP  RH WIND       PRES   REMARKS
CARROLL *      LGT RAIN  43  39  87 NW23G32   29.43R
CHEROKEE *     CLOUDY    41  36  81 NW16G24   29.49R
DENISON *      CLOUDY    41  39  93 NW21      29.46R
LE MARS *      MOCLDY    43  36  75 NW14      29.52R
ORANGE CITY *  CLEAR     43  36  75 NW12G18   29.51R
SHELDON *      MOCLDY    39  36  87 NW15G22   29.49R WCI  31
SIOUX CITY     CLOUDY    45  34  65 NW16G29   29.52R
SPENCER        CLOUDY    41  35  79 NW15      29.47R
STORM LAKE *   LGT RAIN  39  37  93 NW18G28   29.47R WCI  30
$$

IAZ055>058-069>071-079>083-090>094-232300-
   SOUTHWEST IOWA

CITY           SKY/WX    TMP DP  RH WIND       PRES   REMARKS
ATLANTIC *     RAIN      43  41  93 NW23G30   29.44R
AUDUBON *      LGT RAIN  43  36  75 NW14G20   29.44R
CLARINDA *     LGT RAIN  45  41  87 N22G29    29.45R
COUNCIL BLFS * LGT RAIN  41  39  93 N21G30    29.47R
CRESTON *      CLOUDY    43  43 100 NW25G35   29.39R
HARLAN  *      LGT RAIN  41  39  93 NW22G31   29.49R
LAMONI         LGT RAIN  47  45  93 NW23G33   29.35R FOG
RED OAK *      LGT RAIN  45  39  81 N15G25    29.46R
SHENANDOAH *   LGT RAIN  45  41  87 NW20      29.47R
$$

IAZ047>049-059>061-072>074-084-232300-
   CENTRAL IOWA

CITY           SKY/WX    TMP DP  RH WIND       PRES   REMARKS
AMES           CLOUDY    47  44  90 NW13G25   29.37R
ANKENY *       DRIZZLE   48  46  93 NW15G22   29.36R
CHARITON *     FOG       52  52 100 W5        29.33F VSB 1
DES MOINES     CLOUDY    48  45  89 N13G24    29.37R FOG
GRINNELL*      DRIZZLE   50  50 100 CALM      29.34S
KNOXVILLE *    CLOUDY    52  52 100 W6        29.32F FOG
MARSHALLTOWN   CLOUDY    51  51 100 CALM      29.33S FOG
PELLA *        CLOUDY    52  52 100 W3        29.34S FOG
PERRY *        CLOUDY    45  43  93 NW18      29.40R
$$

IAZ004>006-015-016-023>025-035-036-232300-
   NORTH CENTRAL IOWA

CITY           SKY/WX    TMP DP  RH WIND       PRES   REMARKS
ALGONA *       CLOUDY    43  41  93 N17G30    29.41R
CLARION *      CLOUDY    45  45 100 NW20      29.38R
ESTHERVILLE    CLOUDY    40  36  86 NW23G30   29.43R WCI  30
FORT DODGE *   CLOUDY    45  39  81 N12G22    29.42R
MASON CITY     CLOUDY    43  41  93 NW17      29.39R
FOREST CITY *  CLOUDY    43  43 100 NW20G26   29.38R
IOWA FALLS *   DRIZZLE   48  46  93 NW20G25   29.36R
$$

IAZ007>011-017>019-026>030-037>042-050>054-066-232300-
   NORTHEAST IOWA

CITY           SKY/WX    TMP DP  RH WIND       PRES   REMARKS
CEDAR RAPIDS   LGT RAIN  50  50 100 SE6       29.33F FOG
CHARLES CITY * FOG       48  48 100 S5        29.35S VSB 0
CLINTON *      CLOUDY    52  48  87 SE14      29.38F
DECORAH *      CLOUDY    48  48 100 SE6       29.35S FOG
DUBUQUE        LGT RAIN  47  47 100 SE10      29.36F FOG
MONTICELLO *   CLOUDY    50  50 100 SE9       29.35F
OELWEIN *      CLOUDY    48  48 100 SE6       29.36S FOG
WATERLOO       CLOUDY    49  49 100 SE3       29.34F FOG
$$

IAZ064-065-067-068-078-232300-
   EAST CENTRAL IOWA

CITY           SKY/WX    TMP DP  RH WIND       PRES   REMARKS
DAVENPORT      LGT RAIN  51  49  92 S12       29.36F FOG
IOWA CITY      CLOUDY    50  32  50 SE5       29.35F FOG
MT. PLEASANT * DRIZZLE   52  52 100 S6        29.34F
MUSCATINE *    CLOUDY    52  50  93 SE3       29.35F FOG
QUAD CITIES    LGT RAIN  52  51  97 S7        29.35F FOG
$$

IAZ062-063-075>077-085>089-095>099-232300-
   SOUTHEAST IOWA

CITY           SKY/WX    TMP DP  RH WIND       PRES   REMARKS
BURLINGTON     LGT RAIN  52  52 100 S6        29.34F FOG
FAIRFIELD *    DRIZZLE   52  52 100 S7        29.33F
FORT MADISON * DRIZZLE   54  54 100 S6        29.35F
KEOKUK *       CLOUDY    54  54 100 S6        29.33F FOG
OSKALOOSA *    LGT RAIN  52  52 100 CALM      29.33S
CENTERVILLE *  CLOUDY    54  54 100 CALM      29.34S
OTTUMWA        LGT RAIN  53  52  96 S5        29.32F FOG
WASHINGTON *   CLOUDY    52  52 100 S7        29.33F FOG
$$

ABBREVIATIONS USED IN REMARKS
   TC - TEMPERATURES IN CELSIUS
  WCI - WIND CHILL INDEX
   HX - HEAT INDEX
  VSB - VISIBILITY
$$



USA.gov is the U.S. government's official web portal to all federal, state and local government web resources and services.